Weather reports worldwide

Advertisment
Tyndrum, United Kingdom (99020): temperature & dewpoint: 18.08.2019 06:00:00 - 24.08.2019 06:00:00 (BST)Tyndrum, United Kingdom (99020): precipitation: 18.08.2019 06:00:00 - 24.08.2019 06:00:00 (BST)
Date & Time tt [°C] td [°C] rr [mm]
24.08.2019 06:00:00 14,1 11,6 -
24.08.2019 05:00:00 14,9 11,6 0,0
24.08.2019 04:00:00 14,7 12,1 0,0
24.08.2019 03:00:00 14,7 11,8 0,0
24.08.2019 02:00:00 14,7 11,3 0,0
24.08.2019 01:00:00 15,4 12,8 0,0
24.08.2019 00:00:00 15,6 13,0 0,0
23.08.2019 23:00:00 15,8 13,1 0,0
23.08.2019 22:00:00 16,2 13,4 0,0
23.08.2019 21:00:00 16,2 13,8 0,0
23.08.2019 20:00:00 16,8 13,5 0,0
23.08.2019 19:00:00 17,0 13,4 0,0
23.08.2019 18:00:00 17,5 13,4 0,0
23.08.2019 17:00:00 18,2 13,4 0,0
23.08.2019 16:00:00 17,9 12,8 0,0
23.08.2019 15:00:00 18,1 12,9 0,0
23.08.2019 14:00:00 19,1 11,4 0,0
23.08.2019 13:00:00 18,5 11,0 0,0
23.08.2019 12:00:00 17,5 11,1 0,0
23.08.2019 11:00:00 15,8 11,1 0,0
23.08.2019 10:00:00 15,2 11,9 0,0
23.08.2019 09:00:00 14,8 12,4 0,0
23.08.2019 08:00:00 14,7 12,7 0,0
23.08.2019 07:00:00 14,5 12,8 0,2
23.08.2019 06:00:00 15,0 12,5 0,0
23.08.2019 05:00:00 14,9 11,8 0,0
23.08.2019 04:00:00 14,6 12,9 0,0
23.08.2019 03:00:00 15,2 13,4 1,0
23.08.2019 02:00:00 15,3 13,6 0,6
23.08.2019 01:00:00 15,7 13,8 0,4
23.08.2019 00:00:00 16,1 13,7 0,6
22.08.2019 23:00:00 15,7 13,8 0,8
22.08.2019 22:00:00 14,4 13,7 1,0
22.08.2019 21:00:00 13,7 13,0 0,6
22.08.2019 20:00:00 14,0 13,2 0,6
22.08.2019 19:00:00 14,1 13,0 1,2
22.08.2019 18:00:00 14,1 12,8 1,2
22.08.2019 17:00:00 15,0 13,1 0,6
22.08.2019 16:00:00 15,3 13,9 1,0
22.08.2019 15:00:00 15,0 13,4 0,8
22.08.2019 14:00:00 14,4 12,2 0,2
22.08.2019 13:00:00 14,9 9,8 0,0
22.08.2019 12:00:00 15,2 9,2 0,0
22.08.2019 11:00:00 15,5 10,9 0,0
22.08.2019 10:00:00 13,9 9,8 0,2
22.08.2019 09:00:00 13,2 9,6 0,0
22.08.2019 08:00:00 12,4 9,8 0,0
22.08.2019 07:00:00 12,2 9,2 0,0
22.08.2019 06:00:00 12,2 9,4 0,0
22.08.2019 05:00:00 12,2 9,4 0,0
22.08.2019 04:00:00 12,0 9,5 0,0
22.08.2019 03:00:00 11,9 9,6 0,0
22.08.2019 02:00:00 12,0 9,6 0,4
22.08.2019 01:00:00 10,9 9,7 0,0
22.08.2019 00:00:00 10,4 9,1 0,0
21.08.2019 23:00:00 10,4 9,4 0,0
21.08.2019 22:00:00 11,4 10,3 0,0
21.08.2019 21:00:00 12,2 10,4 0,0
21.08.2019 20:00:00 13,7 11,1 3,4
21.08.2019 19:00:00 13,0 11,5 4,4
21.08.2019 18:00:00 12,8 11,5 4,2
21.08.2019 17:00:00 13,1 11,8 3,8
21.08.2019 16:00:00 12,8 11,0 3,4
21.08.2019 15:00:00 13,2 11,5 1,6
21.08.2019 14:00:00 14,6 10,2 0,0
21.08.2019 13:00:00 14,9 10,3 0,0
21.08.2019 12:00:00 14,7 10,8 0,2
21.08.2019 11:00:00 14,1 10,9 0,0
21.08.2019 10:00:00 14,1 12,1 0,0
21.08.2019 09:00:00 12,9 12,7 0,0
21.08.2019 08:00:00 11,7 11,5 0,0
21.08.2019 07:00:00 11,6 11,5 0,0
21.08.2019 06:00:00 10,5 10,3 0,2
21.08.2019 05:00:00 10,2 10,1 1,6
21.08.2019 04:00:00 10,0 9,8 0,6
21.08.2019 03:00:00 9,6 9,4 1,4
21.08.2019 02:00:00 9,3 9,0 0,0
21.08.2019 01:00:00 8,6 8,3 0,0
21.08.2019 00:00:00 8,1 7,7 0,0
20.08.2019 23:00:00 7,8 7,2 0,0
20.08.2019 22:00:00 8,6 7,5 0,0
20.08.2019 21:00:00 10,2 7,9 0,0
20.08.2019 20:00:00 13,0 9,7 0,0
20.08.2019 19:00:00 16,0 5,9 0,0
20.08.2019 18:00:00 16,2 7,5 0,0
20.08.2019 17:00:00 16,7 8,8 0,0
20.08.2019 16:00:00 15,7 9,1 0,0
20.08.2019 15:00:00 15,3 9,4 0,0
20.08.2019 14:00:00 13,7 11,1 0,4
20.08.2019 13:00:00 13,6 10,2 0,0
20.08.2019 12:00:00 14,5 10,7 0,0
20.08.2019 11:00:00 13,8 9,6 0,0
20.08.2019 10:00:00 13,2 10,5 0,0
20.08.2019 09:00:00 10,4 10,2 0,0
20.08.2019 08:00:00 8,3 7,9 0,0
20.08.2019 07:00:00 8,3 7,8 0,0
20.08.2019 06:00:00 9,6 9,1 0,0
20.08.2019 05:00:00 10,3 9,8 0,0
20.08.2019 04:00:00 10,6 10,1 0,0
20.08.2019 03:00:00 10,4 10,1 0,0
20.08.2019 02:00:00 10,4 10,1 0,0
20.08.2019 01:00:00 9,9 9,5 0,0
20.08.2019 00:00:00 9,9 9,4 0,0
19.08.2019 23:00:00 10,3 9,6 0,0
19.08.2019 22:00:00 11,0 10,0 0,2
19.08.2019 21:00:00 11,5 10,2 0,0
19.08.2019 20:00:00 12,5 11,1 1,0
19.08.2019 19:00:00 13,1 11,0 0,2
19.08.2019 18:00:00 13,8 9,5 0,0
19.08.2019 17:00:00 15,2 8,4 0,0
19.08.2019 16:00:00 15,7 8,7 0,0
19.08.2019 15:00:00 14,4 9,5 0,0
19.08.2019 14:00:00 14,8 8,0 0,0
19.08.2019 13:00:00 14,1 9,6 0,0
19.08.2019 12:00:00 14,0 10,7 0,0
19.08.2019 11:00:00 13,7 9,5 0,0
19.08.2019 10:00:00 12,3 11,0 1,8
19.08.2019 09:00:00 11,8 10,7 0,4
19.08.2019 08:00:00 11,2 10,2 0,4
19.08.2019 07:00:00 11,4 10,6 1,8
19.08.2019 06:00:00 10,9 10,7 1,4
19.08.2019 05:00:00 10,8 10,6 0,2
19.08.2019 04:00:00 10,7 10,4 0,0
19.08.2019 03:00:00 10,8 10,6 0,2
19.08.2019 02:00:00 10,7 10,4 0,0
19.08.2019 01:00:00 10,8 10,4 0,0
19.08.2019 00:00:00 10,7 10,2 0,2
18.08.2019 23:00:00 10,6 9,7 0,0
18.08.2019 22:00:00 11,1 9,6 0,0
18.08.2019 21:00:00 11,9 10,4 0,0
18.08.2019 20:00:00 12,1 10,9 1,6
18.08.2019 19:00:00 12,5 11,1 1,2
18.08.2019 18:00:00 12,9 10,9 1,0
18.08.2019 17:00:00 12,7 11,4 3,2
18.08.2019 16:00:00 15,4 11,4 0,2
18.08.2019 15:00:00 15,5 10,5 0,0
18.08.2019 14:00:00 14,6 12,8 0,4
18.08.2019 13:00:00 12,7 11,2 1,2
18.08.2019 12:00:00 13,3 11,3 1,4
18.08.2019 11:00:00 12,6 10,4 2,2
18.08.2019 10:00:00 11,6 10,6 5,2
18.08.2019 09:00:00 12,3 10,1 0,2
18.08.2019 08:00:00 11,5 9,9 2,0
18.08.2019 07:00:00 12,2 10,5 2,4
18.08.2019 06:00:00 11,8 10,5 2,6

tt = temperature
td = dewpoint
rr = precipitation

Next stations